EHI
0 0 0 0 0 0 0 0 0 0 0 0 1 3 5 5 2 2 3 10 21 25 26 31 33 27 19 15 13 11 8 7 6 7 9 12 15 16 16 13 10 7 5 5 5 3 3 3 3
0 0 0 0 0 0 0 0 0 0 0 0 1 3 5 5 5 4 6 13 21 23 23 28 31 28 21 16 13 11 9 7 7 7 8 11 13 13 13 11 9 8 6 4 4 3 2 3 3
0 0 0 0 0 0 0 0 0 0 1 1 2 3 4 6 7 7 10 17 21 19 18 24 31 30 25 19 14 12 10 8 6 6 7 8 9 9 8 7 6 6 5 4 2 2 2 3 3
0 0 0 0 0 0 0 0 0 1 2 3 4 4 4 6 10 11 15 20 20 17 17 23 30 32 28 21 16 12 10 7 4 4 5 6 5 4 3 2 2 3 3 3 1 1 2 3 4
0 0 0 0 0 0 0 0 1 2 3 5 6 5 4 8 14 17 17 19 21 20 20 23 29 31 27 21 17 13 10 6 3 2 3 3 2 1 0 0 0 1 2 2 1 1 2 3 4
0 0 0 0 0 0 0 0 1 2 3 5 6 6 7 13 21 21 18 17 20 22 22 23 27 28 25 19 14 12 9 6 4 3 3 2 1 1 0 0 0 0 1 1 0 1 2 2 3
0 0 0 0 0 0 0 0 1 2 3 5 6 7 8 16 24 25 20 18 19 22 23 24 25 24 22 17 12 11 9 7 4 3 3 2 2 1 0 0 0 0 0 0 0 0 1 2 3
0 0 0 0 0 0 0 0 1 2 5 6 6 5 8 15 25 29 27 23 21 21 22 25 25 23 19 16 14 13 11 8 6 4 2 1 1 1 0 0 0 0 0 0 0 1 2 3 3
0 0 0 0 0 0 0 0 2 4 8 10 8 7 11 20 29 35 34 28 24 20 19 21 24 23 20 18 16 15 13 11 8 5 2 1 0 0 0 0 0 1 2 1 2 3 3 3 3
0 0 0 0 0 0 0 0 2 5 9 12 13 13 18 26 33 38 38 33 28 22 17 16 20 22 21 19 18 17 14 11 9 6 3 1 0 0 0 0 1 2 3 3 3 3 3 2 1
0 0 0 0 0 0 0 0 1 4 7 10 14 16 21 26 31 34 35 33 29 24 19 16 17 21 21 21 21 19 16 13 10 8 5 4 2 0 0 0 0 2 3 4 3 3 2 1 0
0 0 0 0 0 0 0 0 1 3 4 8 12 15 18 21 24 27 28 29 28 26 21 17 18 19 19 19 21 20 17 15 13 10 8 7 4 1 0 0 0 2 5 6 5 3 2 0 0
0 0 0 0 0 0 0 0 1 3 6 9 11 13 13 16 19 22 24 25 27 27 23 21 20 18 15 16 18 19 17 15 14 11 10 9 5 2 1 1 1 4 8 9 6 3 1 0 0
0 0 0 0 0 0 1 1 2 6 11 12 12 11 12 13 16 21 25 25 26 27 26 25 24 19 16 15 16 17 16 15 14 12 10 8 7 4 3 3 3 4 7 7 5 2 1 0 0
0 0 0 0 0 0 1 2 3 8 13 14 12 11 13 14 18 24 27 26 27 27 27 27 26 22 19 18 18 18 18 18 17 15 11 10 9 8 7 6 5 3 2 2 2 1 0 0 0
0 0 0 0 1 1 2 2 4 8 13 15 14 15 18 21 25 29 29 28 29 29 27 27 27 25 23 22 20 20 20 20 19 17 13 12 11 9 8 7 5 2 1 0 0 0 0 0 0
0 0 0 1 2 2 2 3 3 7 14 17 18 21 25 29 32 33 31 30 31 31 30 30 29 28 26 22 19 18 19 18 17 16 14 13 11 9 8 7 5 3 2 1 1 1 0 0 0
0 0 0 1 2 2 2 2 2 6 13 18 21 25 28 32 34 33 32 32 32 31 30 30 30 28 26 22 18 17 17 15 14 13 13 13 10 8 6 6 6 5 4 3 2 2 1 0 0
0 0 0 0 1 2 2 1 2 5 11 17 22 25 27 31 34 34 33 33 32 30 28 27 26 24 23 21 17 16 15 13 11 10 11 10 8 6 5 5 6 5 4 3 3 3 2 1 0
0 0 0 0 1 1 1 1 2 5 10 16 21 25 28 32 35 34 33 33 34 31 28 26 24 21 20 18 16 15 13 10 7 7 8 9 7 5 4 4 4 5 4 3 3 3 3 2 1
0 0 0 0 1 1 0 0 1 5 10 14 18 25 31 34 34 33 32 34 34 33 31 28 25 21 19 18 16 16 13 8 4 4 6 8 8 6 4 3 3 4 3 3 2 3 3 2 1
0 0 0 0 1 0 0 0 1 5 10 13 17 25 32 34 32 30 30 31 32 31 30 29 25 22 20 18 17 16 14 8 3 4 6 7 8 7 4 3 3 3 3 1 1 1 2 1 1
0 0 0 0 0 0 0 0 2 6 10 13 18 26 32 32 30 29 28 27 27 27 26 25 24 22 21 19 17 16 14 9 5 4 5 6 7 6 4 3 3 3 3 1 0 0 1 1 0
0 0 0 0 0 0 0 0 2 5 9 14 20 26 29 29 28 27 26 25 24 23 22 21 21 20 21 20 17 16 14 11 8 6 5 6 7 7 6 4 4 4 4 3 1 0 0 0 0
0 0 0 0 0 0 0 0 1 3 7 14 21 24 25 25 25 25 25 25 24 22 20 19 19 19 20 19 16 14 13 12 11 9 7 8 9 10 9 7 5 5 6 5 3 1 1 1 0
0 0 0 0 0 0 0 0 1 3 6 14 20 22 21 22 22 22 23 24 23 21 20 20 19 20 19 18 16 13 12 11 11 10 10 11 12 12 11 9 7 6 6 6 5 3 2 2 1
0 0 0 0 0 0 0 1 2 5 9 15 18 18 17 17 18 19 20 20 19 18 19 20 20 21 19 16 15 13 12 11 10 11 11 12 12 13 12 9 7 6 6 6 5 4 3 2 1
0 0 0 0 0 0 0 1 3 8 12 16 16 14 13 14 15 15 16 17 16 14 15 17 19 20 18 15 14 13 13 12 11 11 12 12 12 12 12 10 8 7 7 6 5 4 3 2 1
0 0 0 0 0 0 0 0 4 9 14 15 14 13 13 13 13 13 14 15 14 11 12 15 18 18 16 14 14 14 13 12 12 12 12 12 11 11 11 11 10 8 7 6 4 3 3 2 1
0 0 0 0 0 0 0 1 5 11 14 14 14 15 14 13 12 12 13 15 13 10 10 14 16 17 16 15 15 14 13 12 11 11 12 12 11 10 11 11 11 9 8 6 4 3 3 1 0
Wind_Speed
4 3 2 2 5 4 2 3 1 2 3 4 8 9 9 6 5 5 2 11 14 13 10 12 14 13 13 12 12 11 11 11 11 11 11 11 11 10 10 10 9 9 9 9 8 8 8 9 10
2 3 2 4 5 2 4 3 1 0 3 6 10 10 9 7 7 9 6 11 14 13 9 11 15 14 13 13 12 11 11 11 11 11 11 11 10 10 10 9 9 9 8 8 8 7 7 8 9
2 2 3 4 2 3 3 3 1 0 2 5 6 6 6 6 8 6 8 14 12 10 9 11 15 14 13 13 12 11 11 11 11 11 10 10 10 9 9 9 8 8 7 7 7 7 7 7 8
2 3 4 3 3 5 5 4 2 2 3 4 8 7 5 5 7 9 14 14 13 10 8 11 15 14 13 12 12 11 11 11 10 11 10 9 9 9 8 8 8 7 6 6 6 6 6 6 7
3 4 4 2 5 5 4 5 3 3 3 6 9 7 4 4 13 17 16 14 13 9 7 10 14 13 12 12 12 11 11 10 9 9 9 9 8 8 7 7 7 6 6 6 6 6 5 5 6
4 4 3 2 5 5 4 3 2 5 6 7 9 8 4 7 14 14 15 12 12 11 8 8 13 13 12 11 11 11 10 10 9 8 8 7 7 7 7 7 7 6 5 5 5 5 5 5 5
4 3 3 3 4 4 4 2 5 6 4 4 8 7 5 7 11 13 13 12 10 10 8 6 7 9 11 11 11 11 10 9 9 8 8 7 7 6 6 7 6 6 5 5 4 4 5 5 5
5 3 0 2 3 5 4 1 4 6 3 5 6 9 7 9 11 12 11 10 9 8 7 6 6 5 5 6 10 11 10 9 9 8 8 7 6 6 6 6 6 6 5 5 4 4 4 4 4
3 3 3 5 4 5 2 2 1 4 6 4 4 6 10 14 14 13 10 8 7 8 6 6 6 5 5 5 8 8 9 9 8 7 8 6 2 2 3 4 6 5 5 4 4 4 3 3 3
4 4 8 7 5 3 2 1 3 5 6 5 6 8 12 13 13 13 12 11 10 9 8 6 6 6 6 5 4 3 4 4 4 3 4 3 2 2 2 4 6 6 5 4 4 3 2 1 2
4 6 7 6 5 3 1 1 3 7 4 7 11 12 13 12 11 11 10 11 11 10 8 7 7 7 6 4 4 3 2 2 3 4 4 3 2 1 1 1 1 2 3 1 1 1 1 1 2
3 7 7 6 5 3 3 2 3 5 7 9 13 15 13 12 11 11 10 9 9 9 8 7 6 6 5 4 4 3 3 3 3 4 4 3 2 2 2 1 1 1 1 1 1 1 1 1 2
4 7 6 5 4 5 3 2 4 4 6 9 11 12 12 12 9 9 9 9 9 8 8 8 7 6 5 4 3 4 3 3 4 3 4 4 3 3 2 1 1 2 2 2 2 1 1 1 1
5 5 5 4 4 4 4 2 4 4 7 10 11 10 10 11 10 8 8 8 8 9 8 7 7 6 5 4 3 3 3 3 3 3 4 5 3 3 3 2 2 2 2 2 2 2 2 1 1
2 4 6 4 2 3 3 1 3 7 8 9 10 10 10 9 9 10 10 9 9 8 7 7 7 6 5 5 4 3 3 3 3 3 4 4 4 4 3 2 2 2 2 2 2 2 2 2 1
3 2 3 6 2 2 5 5 6 6 8 8 8 9 9 7 8 9 10 9 8 8 7 6 6 5 4 4 3 2 3 3 3 3 3 4 4 4 3 2 2 2 2 2 2 1 1 1 1
3 1 3 6 4 2 4 5 6 6 9 8 8 8 9 7 6 7 9 9 9 8 7 6 5 5 4 3 2 2 2 3 3 3 3 4 4 4 3 2 2 2 2 2 2 1 2 2 1
4 3 3 5 5 1 3 5 5 6 8 8 7 7 9 9 7 8 9 9 8 7 7 6 5 4 4 2 2 1 2 2 2 2 3 4 3 3 3 2 2 2 2 2 2 2 1 1 2
5 5 6 7 4 2 5 7 7 6 6 7 7 8 8 8 6 6 8 9 8 7 6 6 6 4 3 3 2 2 2 1 1 2 3 4 3 3 3 2 2 2 2 2 3 2 2 1 2
6 7 7 6 3 2 4 6 6 6 7 9 10 10 9 8 6 6 6 7 7 7 7 6 6 5 4 3 2 2 2 1 1 1 2 3 3 3 3 3 3 3 2 2 2 2 2 1 2
8 8 7 6 4 2 0 3 3 3 2 4 7 8 9 11 11 8 7 6 7 7 7 6 6 5 4 3 2 2 2 2 1 1 1 2 3 3 2 3 3 3 3 3 3 3 3 2 1
8 8 7 5 2 3 2 3 6 3 1 2 4 6 8 9 9 8 8 7 7 6 5 5 5 4 4 4 4 5 3 2 2 1 1 1 2 2 2 3 3 3 2 3 3 3 3 3 2
9 7 5 4 3 1 1 3 6 1 3 5 6 7 9 10 9 9 8 8 7 6 5 4 4 4 3 4 5 5 3 2 1 1 1 1 1 1 2 3 3 3 2 3 3 2 3 3 3
6 1 2 3 3 2 5 4 5 5 8 7 6 7 9 10 10 8 7 7 6 5 5 5 5 4 4 4 4 5 5 4 3 2 2 1 1 1 1 2 2 2 2 3 3 3 3 2 3
2 4 2 3 2 6 4 4 8 8 8 10 10 9 8 10 10 8 7 7 6 7 6 5 6 4 4 4 4 4 5 5 4 3 3 2 1 1 1 1 1 2 2 2 2 3 2 3 3
4 9 8 5 5 4 2 5 7 7 6 7 9 10 9 9 8 9 8 8 7 7 7 6 6 5 4 4 4 3 3 3 3 3 3 2 2 2 2 2 2 2 2 3 2 2 2 2 2
5 4 8 7 2 1 3 3 5 2 2 5 7 9 9 9 8 8 7 7 7 7 6 6 6 5 5 4 3 3 3 3 3 3 2 2 1 2 1 1 2 2 3 3 3 2 2 2 2
7 6 5 5 4 3 4 4 5 4 5 5 7 8 8 7 8 7 7 7 6 6 5 5 5 5 4 5 4 3 3 3 3 3 2 2 2 2 2 2 2 2 2 3 2 2 2 2 2
1 2 4 4 6 6 3 6 5 9 8 8 8 8 9 8 8 7 5 5 5 5 5 5 5 4 4 4 4 4 4 3 3 3 2 2 2 2 2 2 3 2 2 2 2 2 2 2 2
4 5 6 6 4 4 4 7 4 6 6 7 8 7 7 7 7 7 6 5 5 5 4 4 4 4 4 4 4 4 3 3 3 2 2 3 3 2 3 3 3 2 3 3 3 2 2 2 2
Wind_Direction
175 177 140 67 49 44 307 281 237 347 18 53 79 87 91 80 110 137 136 141 137 141 143 138 133 130 126 122 117 114 111 109 105 102 99 99 99 97 95 94 95 99 106 111 112 113 115 118 119
182 171 69 57 72 28 300 285 26 227 145 107 84 87 81 74 88 112 120 138 138 140 141 138 136 132 129 125 121 118 116 114 112 108 106 104 102 99 97 97 98 100 104 111 113 115 119 119 119
219 138 81 70 97 184 253 277 252 333 111 107 96 73 82 107 117 129 140 141 138 139 141 142 138 135 133 131 129 126 122 120 118 114 112 110 108 104 102 102 101 102 106 111 115 117 118 120 121
85 52 50 66 274 239 215 228 230 108 71 88 101 78 70 105 128 132 134 141 138 140 143 144 141 139 137 136 135 133 130 125 121 117 115 114 113 112 110 111 109 108 109 111 116 118 115 118 121
74 75 52 345 276 264 239 221 187 125 114 105 102 98 74 64 117 130 139 141 139 141 144 145 142 142 141 141 141 140 138 134 129 125 122 118 115 117 120 119 118 117 115 114 117 123 123 126 122
55 71 81 276 285 290 264 225 129 102 113 114 107 106 92 122 130 142 143 141 141 142 143 144 144 144 145 144 144 143 144 143 138 134 132 130 125 124 127 133 134 133 130 123 125 131 128 126 125
119 109 181 237 285 282 258 205 125 115 122 130 122 105 120 145 147 145 139 135 136 138 143 147 151 150 151 152 152 150 150 151 149 145 142 140 139 139 142 148 150 149 145 141 136 137 139 143 138
151 107 237 259 277 277 263 113 121 124 116 119 113 127 160 172 150 135 129 129 135 142 150 154 151 148 152 160 162 161 159 159 156 154 152 150 151 152 154 155 159 159 159 157 155 150 159 158 152
122 96 229 225 222 251 257 105 117 107 102 94 99 132 154 149 142 132 129 130 142 151 161 162 158 159 162 167 169 166 166 168 167 165 165 162 159 168 169 172 173 168 165 166 167 165 164 162 155
129 175 228 216 210 228 249 167 151 103 100 96 92 103 131 140 141 142 146 152 157 162 170 168 163 168 172 174 166 172 174 174 173 176 175 166 164 183 187 188 184 178 171 166 165 154 144 133 110
178 208 238 246 228 212 229 218 125 121 133 156 147 143 145 144 147 148 154 159 163 165 165 168 170 172 174 170 166 175 179 173 174 178 177 168 165 180 196 175 190 178 169 147 143 99 94 119 119
240 254 243 238 224 200 204 170 124 145 177 170 153 150 149 152 157 159 158 159 157 159 165 166 170 168 170 164 173 173 177 181 180 183 178 168 164 168 173 173 176 160 153 149 137 131 135 125 143
256 256 253 232 213 201 192 174 141 157 158 155 145 145 150 158 161 160 157 155 152 158 167 170 167 169 168 165 179 173 182 183 181 176 181 175 169 173 175 172 170 177 165 159 155 156 139 126 138
244 263 267 244 229 212 169 196 131 186 154 151 153 157 159 162 161 151 148 151 157 163 166 165 169 166 159 166 179 179 183 180 170 173 182 177 170 167 172 176 175 181 174 166 167 169 153 139 122
273 302 303 287 248 240 128 290 196 189 157 158 164 166 167 167 157 155 159 156 160 162 158 159 165 158 162 170 176 172 176 168 171 175 174 170 168 162 161 163 176 188 171 159 151 151 135 138 129
358 358 299 289 269 249 131 230 232 184 160 171 172 166 155 158 161 156 153 154 155 150 153 161 158 153 158 159 161 158 162 162 169 168 173 169 167 162 154 162 180 187 166 156 150 143 130 127 134
3 264 253 280 265 216 148 220 226 186 163 173 174 162 150 146 144 150 152 154 155 154 153 152 149 155 156 150 149 145 148 162 167 163 165 163 163 162 159 170 177 174 152 157 163 144 149 144 149
241 242 246 253 266 205 208 230 222 188 162 171 172 161 155 153 162 159 152 150 148 148 148 148 146 146 141 133 115 98 114 148 157 159 162 159 163 167 161 163 169 160 143 141 137 137 146 152 158
233 252 261 264 259 190 224 230 224 196 174 179 175 170 165 160 164 156 148 144 140 142 144 149 147 153 148 148 152 144 150 149 149 158 152 151 157 166 161 163 159 156 157 164 155 145 136 139 124
239 251 265 280 269 205 229 242 224 197 186 180 175 176 170 156 149 147 144 143 147 152 153 154 154 162 168 171 169 160 154 144 141 150 150 154 155 166 166 158 161 160 153 147 155 146 138 158 144
242 230 233 238 285 319 125 307 263 238 171 165 161 161 160 161 160 154 147 148 149 153 161 162 165 168 172 159 135 115 82 71 73 93 129 168 162 165 169 165 161 160 159 167 175 163 157 171 198
244 239 224 214 168 261 178 230 266 229 207 170 168 158 158 156 152 151 148 149 154 159 155 151 157 162 160 147 145 146 145 154 183 162 156 170 158 158 161 160 164 166 167 171 182 174 171 160 175
230 237 221 211 185 235 297 177 265 246 213 199 192 171 161 157 154 158 160 162 161 159 153 147 141 144 147 147 151 147 143 152 141 127 126 141 146 160 162 160 157 163 171 174 169 158 162 161 166
222 247 351 48 89 233 235 175 254 227 212 197 186 168 161 155 159 163 166 155 152 151 148 145 143 139 140 140 148 153 152 145 138 147 158 168 170 174 168 163 161 164 168 175 172 162 158 158 155
161 107 29 350 6 244 229 180 234 229 208 189 174 164 157 157 161 161 157 152 157 159 156 154 147 142 144 137 144 154 153 156 163 171 172 168 164 178 199 173 163 164 163 166 159 152 154 153 148
213 149 162 194 217 261 269 221 249 249 216 179 162 155 152 156 160 163 162 159 164 164 160 157 153 149 153 151 155 152 155 162 169 173 170 169 172 183 182 173 166 167 155 152 145 144 151 147 149
198 194 172 146 185 215 263 270 312 337 133 145 153 150 154 159 159 159 157 157 160 164 165 165 161 158 164 164 149 147 162 166 167 168 155 157 166 172 162 160 153 153 145 138 135 141 149 143 144
181 168 106 121 163 237 264 243 222 196 172 157 158 158 158 153 150 153 154 156 161 163 165 164 161 170 168 159 158 156 166 164 164 156 152 156 165 157 153 155 143 140 140 137 133 141 150 135 143
121 115 123 137 160 167 226 262 230 185 177 169 165 154 154 148 150 154 156 153 153 153 158 161 162 159 153 153 154 150 155 149 140 142 152 149 144 144 140 136 131 133 136 135 131 136 135 130 121
170 176 151 157 203 170 176 262 281 168 166 156 149 146 147 142 140 141 144 139 136 145 156 161 163 161 160 158 148 150 143 133 128 134 135 125 124 119 122 114 116 126 121 121 125 127 120 123 125